STARLINK-1152, 45096

Orbit data source: Space-Track

STARLINK-1152, 45096 is a payload satellite owned by SpaceX/Seattle (US) in LEO that was launched on Wed, 29 Jan 2020 UTC via an FALCON 9 launch vehicle from the Air Force Eastern Test Range (AFETR). Payload-class satellites include a variety of spacecraft equipped with specific instruments for various scientific and technological missions. These include communications satellites like Starlink; space stations such as the ISS; scientific satellites like the Hubble; Earth observation satellites from companies like Planet Labs, Umbra, and HawkEye 360; GPS; miniature CubeSats for education and research; and military/defense satellites.

Loading next visibility...
Identifier
45096, 2020-006BE
Orbit
LEO
Country
Flag of USUS
Related business
Manufacturer
SpaceX/Seattle
Mission
Partially operational Commercial Communications
Bus & Motor
STARLINK, Unknown motor
Mass
260 kg wet, ~248 kg dry
Launch date (UTC)
2020-01-29 (6 years ago)
Launch vehicle
FALCON 9
Launch site
Air Force Eastern Test Range (AFETR)
Object type
Payload
Rocket body
Debris
Shape & HBR
Box + 1 Pan, 10.1 m
Radar Cross Section
13.562 m², Large (>1 m²)

Expand to show TLE details & history
Last TLE update: 22 hours ago

TLE from 22 hours ago
0 STARLINK-1152
1 45096U 20006BE  26170.45382451  .00065098  00000-0  11276-2 0  9997
2 45096  53.0319  82.0876 0003927 120.7928 239.3467 15.50318640353310
Epoch: 2026-06-19T10:53Z
TLE epoch observation values (Epoch: 2026-06-19T10:53:30.437Z)
Latitude
-0.00001°
Longitude
11.02819°
Altitude
418.05 km
Speed
7.661 km/s
True Right ascension
05h 28m 21s
True Declination
0° 00' 00"
Sunlit
Object was in daylight at epoch
Visualization orbit readout
Latitude
Unknown
Longitude
Unknown
Altitude
Unknown
Speed
Unknown
Apparent Right ascension
Unknown
Apparent Declination
Unknown
Sunlit
N/A
Visualization observer readout
Local Sidereal Time
20:02:41
Azimuth
Unknown
Elevation
Unknown
Doppler factor
Unknown
Orbital elements
Apogee altitude
418.743 km
Perigee altitude
413.406 km
Semi-major axis
6,794.211 km
Eccentricity
0.00039
Inclination
53.0319°
RAAN
82.0876°
Arg. of periapsis
120.7928°
True anomaly
239.308°
Mean anomaly
239.3467°
Eccentric anomaly
239.32735°
Mean motion
3.87556 °/min
Orbital period
92.89 mins
BSTAR
0.0011276
Loading maneuver chart data...
Computing Atmospheric mass density...

Documentation

Showing up to 5 results
|